| time (UTC) | temp F | wind direction | speed MPH | gust MPH | rain 1hr in | rain 24hr in | rain mn in | humidity % | barometer mb |
| 20260502224520 | 65 | 340 | 4.0 | 9.0 | 0.00 | 0.00 | 0.00 | 35 | 1012.1 |
| 20260502223026 | 65 | 280 | 7.0 | 14.0 | 0.00 | 0.00 | 0.00 | 35 | 1012.2 |
| 20260502221513 | 65 | 231 | 7.0 | 13.0 | 0.00 | 0.00 | 0.00 | 31 | 1012.4 |
| 20260502220011 | 64 | 28 | 5.0 | 9.0 | 0.00 | 0.00 | 0.00 | 30 | 1012.7 |
| 20260502214509 | 64 | 92 | 4.0 | 10.0 | 0.00 | 0.00 | 0.00 | 33 | 1012.9 |
| 20260502213006 | 63 | 62 | 5.0 | 8.0 | 0.00 | 0.00 | 0.00 | 38 | 1013.2 |
| 20260502211504 | 63 | 3 | 2.0 | 6.0 | 0.00 | 0.00 | 0.00 | 37 | 1013.4 |
| 20260502210003 | 63 | 66 | 6.0 | 9.0 | 0.00 | 0.00 | 0.00 | 36 | 1013.6 |
| 20260502204501 | 62 | 101 | 4.0 | 8.0 | 0.00 | 0.00 | 0.00 | 35 | 1013.9 |
| 20260502203105 | 62 | 30 | 5.0 | 10.0 | 0.00 | 0.00 | 0.00 | 36 | 1013.8 |
| 20260502201559 | 65 | 20 | 5.0 | 12.0 | 0.00 | 0.00 | 0.00 | 34 | 1013.8 |
| 20260502200124 | 64 | 356 | 4.0 | 18.0 | 0.00 | 0.00 | 0.00 | 32 | 1013.8 |
| 20260502194553 | 63 | 262 | 9.0 | 13.0 | 0.00 | 0.00 | 0.00 | 33 | 1014.2 |
| 20260502193052 | 63 | 293 | 5.0 | 11.0 | 0.00 | 0.00 | 0.00 | 33 | 1014.5 |
| 20260502191558 | 62 | 276 | 5.0 | 13.0 | 0.00 | 0.00 | 0.00 | 36 | 1014.7 |
| 20260502190050 | 63 | 290 | 5.0 | 10.0 | 0.00 | 0.00 | 0.00 | 33 | 1015.0 |
| 20260502184545 | 63 | 319 | 5.0 | 10.0 | 0.00 | 0.00 | 0.00 | 37 | 1015.1 |
| 20260502183043 | 62 | 249 | 3.0 | 5.0 | 0.00 | 0.00 | 0.00 | 37 | 1015.3 |
| 20260502181540 | 61 | 314 | 0.0 | 5.0 | 0.00 | 0.00 | 0.00 | 44 | 1015.5 |
| 20260502163024 | 57 | 94 | 3.0 | 8.0 | 0.00 | 0.00 | 0.00 | 41 | 1016.5 |
| 20260502161520 | 56 | 66 | 3.0 | 6.0 | 0.00 | 0.00 | 0.00 | 41 | 1016.5 |
| 20260502151511 | 49 | 63 | 5.0 | 7.0 | 0.00 | 0.00 | 0.00 | 53 | 1017.4 |
| 20260502150200 | 48 | 59 | 3.0 | 6.0 | 0.00 | 0.00 | 0.00 | 55 | 1017.8 |
| 20260502140116 | 40 | 59 | 2.0 | 5.0 | 0.00 | 0.00 | 0.00 | 64 | 1018.2 |
| 20260502123041 | 31 | 64 | 1.0 | 5.0 | 0.00 | 0.00 | 0.00 | 78 | 1018.2 |
| 20260502121540 | 32 | 67 | 2.0 | 6.0 | 0.00 | 0.00 | 0.00 | 77 | 1018.1 |
| 20260502114533 | 33 | 42 | 3.0 | 6.0 | 0.00 | 0.00 | 0.00 | 74 | 1018.1 |
| 20260502113045 | 33 | 42 | 5.0 | 8.0 | 0.00 | 0.00 | 0.00 | 75 | 1018.0 |
| 20260502111533 | 33 | 51 | 5.0 | 7.0 | 0.00 | 0.00 | 0.00 | 75 | 1018.0 |
| 20260502110035 | 34 | 56 | 1.0 | 4.0 | 0.00 | 0.00 | 0.00 | 73 | 1017.9 |
| 20260502104528 | 34 | 59 | 2.0 | 7.0 | 0.00 | 0.00 | 0.00 | 73 | 1017.9 |
| 20260502103028 | 33 | 73 | 3.0 | 7.0 | 0.00 | 0.00 | 0.00 | 75 | 1017.9 |
| 20260502101527 | 33 | 68 | 4.0 | 6.0 | 0.00 | 0.00 | 0.00 | 75 | 1017.9 |
| 20260502091520 | 33 | 58 | 3.0 | 6.0 | 0.00 | 0.00 | 0.00 | 75 | 1017.6 |
| 20260502070109 | 39 | 81 | 2.0 | 4.0 | 0.00 | 0.00 | 0.00 | 63 | 1017.4 |
| 20260502064605 | 39 | 106 | 2.0 | 7.0 | 0.00 | 0.00 | 0.00 | 63 | 1017.4 |
| 20260502063053 | 39 | 39 | 4.0 | 7.0 | 0.00 | 0.00 | 0.00 | 63 | 1017.2 |
| 20260502061548 | 40 | 51 | 3.0 | 6.0 | 0.00 | 0.00 | 0.00 | 62 | 1017.2 |
| 20260502060044 | 40 | 115 | 4.0 | 9.0 | 0.00 | 0.00 | 0.00 | 63 | 1017.1 |
| 20260502054545 | 40 | 55 | 4.0 | 8.0 | 0.00 | 0.00 | 0.00 | 63 | 1017.1 |
| 20260502053043 | 41 | 45 | 4.0 | 6.0 | 0.00 | 0.00 | 0.00 | 62 | 1017.1 |
| 20260502051543 | 42 | 64 | 3.0 | 5.0 | 0.00 | 0.00 | 0.00 | 60 | 1017.1 |
| 20260502050042 | 43 | 75 | 3.0 | 6.0 | 0.00 | 0.00 | 0.00 | 59 | 1017.1 |
| 20260502044541 | 43 | 87 | 1.0 | 5.0 | 0.00 | 0.00 | 0.00 | 59 | 1017.1 |
| 20260502043042 | 43 | 74 | 3.0 | 5.0 | 0.00 | 0.00 | 0.00 | 59 | 1017.0 |
| 20260502041553 | 43 | 85 | 1.0 | 3.0 | 0.00 | 0.00 | 0.00 | 60 | 1017.0 |
| 20260502040039 | 44 | 92 | 0.0 | 2.0 | 0.00 | 0.00 | 0.00 | 59 | 1016.9 |
| 20260502034539 | 44 | 90 | 0.0 | 2.0 | 0.00 | 0.00 | 0.00 | 58 | 1016.8 |
| 20260502033039 | 45 | 97 | 1.0 | 4.0 | 0.00 | 0.00 | 0.00 | 57 | 1016.6 |
| 20260502031537 | 46 | 74 | 0.0 | 2.0 | 0.00 | 0.00 | 0.00 | 56 | 1016.4 |
| 20260502030038 | 48 | 165 | 1.0 | 2.0 | 0.00 | 0.00 | 0.00 | 52 | 1016.0 |
| 20260502024536 | 50 | 95 | 0.0 | 2.0 | 0.00 | 0.00 | 0.00 | 49 | 1015.7 |
| 20260502023051 | 54 | 87 | 1.0 | 2.0 | 0.00 | 0.00 | 0.00 | 42 | 1015.4 |
| 20260502021535 | 60 | 235 | 0.0 | 1.0 | 0.00 | 0.00 | 0.00 | 33 | 1015.4 |
| 20260502020035 | 62 | 236 | 1.0 | 4.0 | 0.00 | 0.00 | 0.00 | 32 | 1015.3 |
| 20260502014536 | 64 | 227 | 2.0 | 4.0 | 0.00 | 0.00 | 0.00 | 26 | 1015.3 |
| 20260502013033 | 65 | 249 | 4.0 | 9.0 | 0.00 | 0.00 | 0.00 | 25 | 1015.4 |
| 20260502011532 | 65 | 227 | 4.0 | 7.0 | 0.00 | 0.00 | 0.00 | 26 | 1015.5 |
| 20260502010035 | 65 | 236 | 4.0 | 8.0 | 0.00 | 0.00 | 0.00 | 25 | 1015.6 |
| 20260502004531 | 65 | 218 | 3.0 | 8.0 | 0.00 | 0.00 | 0.00 | 24 | 1015.7 |
| 20260502003028 | 65 | 200 | 5.0 | 9.0 | 0.00 | 0.00 | 0.00 | 24 | 1015.8 |
| 20260502001527 | 65 | 246 | 4.0 | 11.0 | 0.00 | 0.00 | 0.00 | 25 | 1015.8 |
| 20260502000041 | 65 | 255 | 7.0 | 10.0 | 0.00 | 0.00 | 0.00 | 25 | 1015.9 |
| 20260501234524 | 65 | 281 | 7.0 | 10.0 | 0.00 | 0.00 | 0.00 | 25 | 1016.1 |
| 20260501233022 | 65 | 251 | 3.0 | 11.0 | 0.00 | 0.00 | 0.00 | 25 | 1016.1 |
| 20260501231520 | 65 | 228 | 5.0 | 9.0 | 0.00 | 0.00 | 0.00 | 23 | 1016.2 |
| 20260501230119 | 65 | 256 | 9.0 | 14.0 | 0.00 | 0.00 | 0.00 | 25 | 1016.4 |